Location: Champignolles
(47.0543°N, 4.5663°E)
Time: 07:09:09
(UTC+00:00)

Cosmos 923 Rocket - Pass Details

Date: 17 April 2021
Orbit: 759 x 785 km, 74.0° (Epoch: 13 May)

Event Time Altitude Azimuth Distance (km) Brightness Sun altitude
Rises 03:28:45 0° 326° (NNW) 3,230 7.2 -13.4°
Reaches altitude 10° 03:31:32 10° 313° (NW) 2,301 6.3 -13.0°
Maximum altitude 03:35:34 23° 262° (W) 1,577 5.1 -12.5°
Enters shadow 03:38:27 15° 221° (SW) 1,978 5.5 -12.0°
